Vertical_Velocity
2 2 3 3 2 3 0 -1 -2 -2 -2 -1 -1 -1 -2 -2 -1 -2 -1 -1 -1 -1 -1 1 1 1 -1 -2 -2 -4 0 0 -0 -1 -0 -0 -1 -1 0 -2 -2 -3 -4
1 3 3 3 1 0 0 -0 -1 -1 1 0 2 1 1 -0 -0 -0 -0 -0 -1 -1 -0 -0 0 0 -1 0 -2 -2 0 1 -1 0 -1 2 -2 -1 -1 0 -1 -2 -1
-0 0 0 -1 -1 -4 -4 -2 0 1 1 0 -1 -1 0 1 -0 -0 -0 -1 -0 -1 -1 1 -0 0 0 -1 -3 -2 -1 1 1 -0 -1 1 4 -0 -1 -1 -2 -0 1
1 3 2 1 1 -1 3 5 2 1 1 0 0 1 4 2 -0 -1 -1 -1 0 1 1 1 0 0 0 2 -1 -4 -1 -1 -3 -2 -3 -0 -2 1 6 -1 -1 -1 -1
1 1 2 1 3 4 1 1 2 2 1 0 1 2 1 -1 -1 -1 -2 -1 -2 -3 2 1 1 0 1 -2 0 -0 -3 -1 -1 0 -1 -1 -1 0 -1 3 3 -1 1
-1 2 2 3 4 1 3 2 0 2 1 -0 1 1 1 1 1 1 0 -1 -0 3 -3 -2 1 -1 -0 2 -1 -3 -3 -1 -1 -2 -1 -2 -1 -1 -1 -2 -1 -3 -2
0 1 2 4 3 2 3 3 2 -0 0 1 1 1 2 2 1 1 1 0 0 -1 0 -1 -3 -1 1 1 1 -1 -3 -1 -0 -1 -2 -2 -2 -2 0 -1 -0 -0 -2
-0 0 1 2 1 3 3 1 1 1 1 2 1 1 1 1 -0 -0 -2 -0 1 1 1 3 0 -1 -0 0 2 -1 -2 -0 -0 -2 -3 -1 0 0 -2 0 0 -0 -2
-1 -0 -0 1 1 2 2 3 3 2 2 1 0 0 3 1 -0 3 5 -0 1 2 2 2 0 0 1 1 2 -2 -3 -1 -1 -3 1 1 -0 -2 -0 -0 0 2 1
0 -0 -0 -0 -0 2 2 2 3 4 3 2 2 1 -1 -1 1 2 2 -1 -1 -1 -1 -0 -1 0 -1 1 0 2 -1 -1 -1 -2 -4 1 -1 -0 -2 -0 -3 -2 -1
0 0 1 2 0 0 2 1 -1 -0 3 6 4 5 2 3 1 -2 3 0 -1 -1 0 -2 0 -1 -0 -0 0 -0 -3 0 -3 -3 0 0 1 2 -1 -1 1 -1 0
-1 1 -0 -1 1 -1 -0 -0 4 7 4 -2 -1 2 7 5 3 1 0 -1 -1 -0 0 -0 -2 -2 -1 1 3 2 7 4 -2 -4 -3 -2 -3 -1 0 -1 -3 -2 1
-2 0 4 1 2 5 2 4 6 -1 -4 -2 4 -3 2 5 -1 3 5 3 0 -1 -1 -0 3 2 1 -0 -1 -2 1 4 6 4 -4 3 -2 -1 -2 -1 -2 -2 -3
1 1 1 4 3 2 3 1 2 7 3 -2 1 -0 -0 3 1 0 1 0 -1 -0 1 0 1 0 1 0 -4 3 -3 0 -5 2 1 -0 -2 -2 -1 -1 -1 1 -1
1 4 2 1 3 4 3 3 3 -1 4 0 2 1 1 1 -0 4 2 3 1 -1 -1 -1 -2 -6 -3 -3 -4 -2 -3 2 1 2 3 2 3 7 3 -1 -0 2 -2
4 4 4 3 2 3 3 6 6 0 1 0 -2 -0 -1 -3 1 0 2 -1 -2 -2 -2 -2 -0 -0 -2 -2 -1 1 1 -5 -1 -0 3 -3 -3 -1 1 2 -2 -2 -4
12 9 7 6 2 -2 -1 -0 4 2 -2 -4 -0 2 2 -1 -1 -5 -2 -1 1 -1 -1 0 -1 -2 -3 -1 -3 -5 -3 1 1 4 1 -2 2 1 5 -4 -2 -5 6
-5 -1 1 0 1 6 0 -6 1 2 3 1 2 -5 -3 -1 -2 -2 -3 -2 -3 -1 0 1 -0 1 -4 0 1 1 -0 1 -1 -3 -5 -3 3 -11 5 0 -4 -3 -3
2 3 2 -1 3 2 4 1 3 2 -2 -1 -3 -4 1 3 3 3 3 -2 -2 -2 -0 -1 0 -1 -1 1 -2 -0 -2 -1 3 -1 -3 2 2 -6 -6 -1 -2 0 -7
-2 0 0 -0 1 1 6 3 0 -3 -1 0 -1 -1 -3 -2 2 1 3 1 -1 -2 1 -1 -4 -4 -4 -5 -0 0 0 -3 -4 1 -2 5 -10 10 -7 1 -4 1 -6
-0 -2 -3 1 1 -4 -2 6 1 3 -1 2 -1 1 -1 -2 0 -1 4 -5 -1 -6 -3 -5 -4 -2 0 1 2 4 -0 -3 -2 -1 5 -5 -3 5 -1 -1 2 -2 4
-1 -3 -5 -2 -2 -3 -0 -2 -2 -1 -0 -2 1 1 1 1 -1 -3 -4 -1 -1 -1 0 1 -1 -4 1 1 -3 -3 1 6 3 -1 -3 -10 1 0 -2 1 -4 -2 7
-3 -0 -1 -3 -1 -1 -2 2 2 0 1 -1 -1 -1 -0 -1 -4 1 3 3 1 -1 -1 -2 -1 -4 -1 -3 -1 3 -0 -3 7 -4 -11 -5 -1 -3 -1 1 5 3 1
-1 -4 -2 0 1 2 0 -4 -1 2 -1 -2 -2 -1 -2 5 2 2 -2 0 -0 -1 -2 -1 -2 -1 -2 0 -2 -3 -5 -1 -2 -10 -7 -2 -3 -3 -0 6 -1 -0 6
-0 -0 -0 -0 1 1 1 3 2 1 2 -1 1 2 -0 -5 2 -1 2 -0 -2 -3 -1 -3 1 -1 -3 -3 -2 -3 2 0 -6 -3 2 -2 -3 -1 -1 -1 -2 -1 -1
2 1 2 -1 -1 2 -2 1 2 1 -1 -2 -4 -4 -1 6 1 -2 1 -1 -2 -2 3 2 7 3 2 3 -2 -4 0 -3 -3 0 -2 -5 -2 3 3 1 -7 -1 -0
Height
1455 1456 1460 1464 1469 1472 1476 1480 1482 1485 1488 1491 1493 1495 1497 1499 1501 1503 1504 1505 1506 1507 1507 1508 1508 1509 1509 1510 1510 1511 1511 1510 1510 1510 1509 1509 1508 1509 1509 1508 1508 1508 1509
1447 1449 1453 1458 1462 1467 1472 1475 1479 1482 1485 1488 1491 1493 1495 1496 1498 1500 1501 1503 1504 1505 1506 1506 1507 1508 1508 1508 1509 1510 1511 1510 1509 1509 1510 1511 1511 1508 1508 1508 1508 1508 1509
1441 1443 1446 1451 1457 1462 1466 1470 1474 1478 1481 1484 1487 1490 1492 1493 1495 1496 1498 1500 1502 1503 1504 1505 1505 1506 1506 1507 1507 1508 1509 1509 1509 1508 1509 1510 1510 1509 1507 1506 1506 1507 1507
1438 1440 1443 1447 1451 1456 1463 1467 1470 1474 1477 1481 1483 1486 1489 1490 1491 1493 1495 1497 1499 1501 1502 1502 1503 1504 1504 1505 1504 1506 1507 1507 1508 1508 1508 1508 1508 1509 1509 1507 1506 1506 1506
1435 1438 1440 1444 1450 1455 1458 1463 1467 1470 1474 1477 1480 1483 1485 1486 1488 1490 1492 1494 1495 1497 1499 1500 1501 1502 1502 1502 1502 1503 1504 1504 1505 1505 1505 1505 1505 1505 1506 1507 1508 1505 1504
1433 1436 1439 1443 1446 1450 1454 1458 1462 1466 1469 1473 1476 1479 1481 1482 1483 1485 1487 1489 1492 1493 1495 1497 1498 1499 1499 1499 1499 1500 1501 1502 1501 1503 1503 1503 1504 1503 1503 1504 1504 1504 1504
1432 1433 1436 1439 1441 1445 1450 1454 1458 1462 1465 1468 1471 1473 1476 1478 1479 1481 1483 1485 1487 1489 1491 1492 1494 1496 1496 1496 1496 1497 1498 1499 1499 1500 1500 1500 1500 1500 1500 1500 1501 1501 1500
1430 1431 1433 1436 1440 1443 1447 1451 1455 1458 1461 1464 1466 1469 1471 1473 1475 1477 1479 1482 1483 1485 1487 1488 1489 1491 1492 1493 1493 1493 1495 1496 1496 1496 1497 1497 1497 1497 1497 1498 1498 1499 1498
1427 1428 1430 1433 1436 1439 1443 1447 1450 1453 1456 1459 1462 1464 1466 1468 1471 1473 1474 1477 1480 1481 1483 1484 1486 1487 1489 1490 1490 1490 1491 1492 1492 1493 1493 1493 1493 1493 1494 1494 1495 1496 1497
1426 1427 1428 1430 1432 1435 1438 1442 1446 1450 1452 1455 1457 1459 1461 1463 1465 1468 1468 1471 1474 1477 1479 1480 1482 1483 1485 1486 1486 1486 1485 1486 1487 1488 1489 1490 1489 1489 1490 1490 1491 1492 1494
1425 1427 1428 1429 1430 1433 1436 1439 1442 1446 1449 1451 1453 1455 1456 1458 1460 1463 1464 1466 1469 1472 1474 1476 1477 1479 1480 1482 1482 1481 1481 1481 1481 1484 1484 1485 1485 1485 1486 1487 1488 1488 1489
1425 1426 1426 1429 1429 1430 1433 1435 1437 1440 1443 1446 1449 1453 1455 1454 1456 1459 1460 1462 1464 1466 1469 1472 1473 1474 1475 1476 1477 1478 1477 1475 1475 1477 1478 1479 1480 1481 1481 1482 1483 1484 1485
1422 1425 1426 1426 1429 1430 1432 1435 1437 1439 1442 1445 1447 1450 1453 1452 1453 1455 1457 1459 1461 1464 1466 1468 1468 1469 1470 1470 1474 1473 1476 1474 1473 1471 1472 1472 1473 1474 1476 1477 1477 1478 1479
1418 1421 1425 1425 1427 1428 1431 1431 1434 1436 1436 1441 1444 1447 1449 1450 1451 1451 1453 1454 1457 1460 1461 1463 1465 1466 1467 1468 1470 1472 1473 1472 1472 1470 1470 1468 1468 1469 1470 1471 1473 1473 1473
1416 1420 1422 1425 1427 1429 1430 1431 1432 1434 1436 1439 1442 1444 1446 1446 1449 1450 1451 1452 1453 1456 1458 1460 1460 1462 1464 1464 1466 1468 1469 1469 1468 1467 1465 1463 1464 1463 1462 1464 1466 1467 1468
1420 1421 1422 1425 1428 1431 1433 1433 1432 1433 1436 1438 1441 1443 1443 1444 1448 1448 1449 1450 1452 1453 1455 1456 1456 1457 1458 1460 1461 1463 1461 1464 1465 1462 1459 1458 1458 1459 1458 1458 1459 1460 1462
1429 1429 1430 1430 1430 1431 1434 1435 1434 1433 1435 1438 1440 1441 1442 1442 1443 1444 1447 1449 1449 1450 1451 1451 1451 1451 1453 1454 1454 1455 1457 1458 1457 1455 1452 1453 1453 1452 1452 1452 1454 1455 1457
1438 1439 1439 1438 1437 1434 1432 1434 1433 1434 1434 1436 1437 1440 1441 1440 1440 1440 1442 1444 1445 1446 1447 1446 1446 1445 1446 1447 1447 1448 1449 1449 1448 1445 1445 1446 1444 1444 1448 1445 1446 1450 1448
1441 1441 1442 1442 1441 1440 1435 1433 1433 1432 1433 1434 1435 1437 1439 1439 1438 1436 1435 1436 1438 1440 1441 1440 1440 1440 1440 1441 1441 1441 1440 1441 1440 1438 1439 1438 1433 1436 1440 1441 1438 1440 1440
1446 1444 1444 1444 1443 1442 1439 1433 1431 1431 1432 1432 1433 1431 1434 1436 1435 1434 1431 1432 1431 1433 1434 1432 1434 1433 1433 1433 1433 1432 1431 1433 1432 1432 1431 1428 1427 1429 1429 1432 1432 1430 1431
1447 1444 1446 1445 1442 1441 1442 1436 1432 1431 1431 1430 1430 1427 1428 1429 1430 1430 1427 1427 1427 1427 1428 1427 1427 1427 1426 1425 1425 1424 1422 1423 1423 1423 1422 1418 1425 1422 1421 1423 1423 1422 1425
1447 1445 1443 1442 1440 1440 1439 1435 1434 1430 1428 1428 1429 1424 1423 1424 1422 1423 1423 1421 1422 1420 1420 1419 1419 1420 1418 1416 1415 1417 1417 1416 1413 1411 1412 1416 1418 1414 1414 1414 1414 1415 1416
1449 1443 1442 1440 1439 1437 1435 1433 1431 1427 1426 1423 1424 1422 1420 1418 1417 1418 1417 1413 1413 1413 1413 1413 1413 1412 1411 1409 1408 1408 1406 1410 1404 1401 1405 1410 1408 1406 1405 1404 1405 1406 1405
1444 1442 1441 1439 1436 1434 1430 1427 1428 1422 1420 1420 1417 1417 1415 1414 1411 1411 1409 1407 1406 1406 1406 1406 1406 1404 1404 1402 1399 1400 1399 1399 1395 1396 1399 1399 1397 1396 1395 1395 1395 1394 1394
1443 1441 1439 1435 1431 1428 1425 1423 1419 1417 1414 1413 1411 1408 1407 1407 1403 1401 1401 1398 1398 1400 1400 1399 1399 1396 1395 1395 1393 1394 1394 1393 1392 1392 1391 1389 1387 1386 1385 1384 1385 1385 1385
1440 1436 1432 1429 1426 1421 1418 1417 1414 1411 1408 1404 1403 1401 1401 1399 1393 1394 1392 1390 1392 1394 1394 1392 1392 1390 1388 1388 1388 1389 1388 1387 1386 1384 1381 1379 1379 1377 1377 1376 1376 1376 1376